Date String (YYYY-MM-DD hh:mm:ss) UTC,Instrument flags,absolute air pressure of the measurement (hPa),sample flow rate (lpm),inlet stack bypass flow (lpm),air temperature of the measurement (°C),ambient temperature measured by the external sensor (°C),aerosol sample conditioner tube jacket temperature (°C),OPC LED temperature (°C),internal box temperature (°C),relative humidity of the measurement (%),span deviation,mass concentration of particles derived from Lorenz-Mie calculation of OPC scattering (μg/m³),mass concentration of particles derived from Lorenz-Mie calculation of OPC scattering (μg/m³),mass concentration of particles derived from Lorenz-Mie calculation of OPC scattering (μg/m³)
DateTimeUTC,F1_M11,P_M11,Q1_M11,Q2_M11,T1_M11,T2_M11,T3_M11,T4_M11,T5_M11,U1_M11,ZSPAN_M11,X0_M11,X2_M11,X1_M11
2023-12-05 15:00:00,SystemResetWarning,0835.1,5.00,000.00,020.5,019.6,000.0,028.8,021.8,18.5,0000.0,0004.66,0001.05,0000.83
2023-12-05 15:01:00,SystemResetWarning,0835.0,5.00,000.00,020.5,019.7,000.0,028.8,021.8,18.6,0000.0,0004.60,0000.97,0000.76
2023-12-05 15:02:00,SystemResetWarning,0835.1,5.00,000.00,020.5,019.7,000.0,028.8,021.8,18.5,0000.0,0004.69,0000.90,0000.69
2023-12-05 15:03:00,SystemResetWarning,0835.1,5.00,000.00,020.5,019.7,000.0,028.8,021.8,17.8,0000.0,0004.67,0000.85,0000.62
2023-12-05 15:04:00,SystemResetWarning,0835.1,5.01,000.00,020.5,019.7,000.0,028.8,021.8,18.3,0000.0,0004.54,0000.78,0000.55
2023-12-05 15:05:00,SystemResetWarning,0835.1,5.01,000.00,020.5,019.7,000.0,028.8,021.8,19.3,0000.0,0004.50,0000.72,0000.50
2023-12-05 15:06:00,SystemResetWarning,0835.0,5.00,000.00,020.5,019.8,000.0,028.8,021.8,17.7,0000.0,0003.21,0000.68,0000.46
2023-12-05 15:07:00,SystemResetWarning,0835.0,5.00,000.00,020.5,019.8,000.0,028.8,021.9,17.1,0000.0,0002.73,0000.65,0000.44
2023-12-05 15:08:00,SystemResetWarning,0835.1,4.99,000.00,020.6,019.8,000.0,028.8,021.9,17.2,0000.0,0001.43,0000.66,0000.45
2023-12-05 15:09:00,SystemResetWarning,0835.0,4.99,000.00,020.6,019.8,000.0,028.8,021.9,17.3,0000.0,0001.40,0000.70,0000.48
2023-12-05 15:10:00,SystemResetWarning,0835.0,4.99,000.00,020.6,019.8,000.0,028.8,021.9,17.2,0000.0,0001.48,0000.74,0000.53
2023-12-05 15:11:00,SystemResetWarning,0835.0,5.01,000.00,020.6,019.9,000.0,028.8,021.9,16.3,0000.0,0001.54,0000.77,0000.56
2023-12-05 15:12:00,SystemResetWarning,0834.9,5.01,000.00,020.6,019.9,000.0,028.9,021.9,16.3,0000.0,0001.67,0000.86,0000.60
2023-12-05 15:13:00,SystemResetWarning,0835.0,5.00,000.00,020.6,019.9,000.0,028.9,021.9,16.4,0000.0,0001.74,0000.94,0000.65
2023-12-05 15:14:00,SystemResetWarning,0834.9,5.00,000.00,020.6,019.9,000.0,028.9,021.9,16.2,0000.0,0001.76,0000.99,0000.72
2023-12-05 15:15:00,SystemResetWarning,0835.0,5.00,000.00,020.6,019.9,000.0,028.9,022.0,16.4,0000.0,0001.69,0000.98,0000.73
2023-12-05 15:16:00,SystemResetWarning,0835.0,5.00,000.00,020.7,019.9,000.0,028.9,022.0,16.2,0000.0,0001.60,0000.98,0000.74
2023-12-05 15:17:00,SystemResetWarning,0834.9,5.00,000.00,020.7,020.0,000.0,028.9,022.0,16.1,0000.0,0001.69,0001.02,0000.76
2023-12-05 15:18:00,SystemResetWarning,0835.1,5.00,000.00,020.7,020.0,000.0,028.9,022.0,15.7,0000.0,0001.73,0001.05,0000.77
2023-12-05 15:19:00,SystemResetWarning,0835.0,5.00,000.00,020.7,020.0,000.0,028.9,022.0,16.4,0000.0,0001.71,0001.03,0000.74
2023-12-05 15:20:00,SystemResetWarning,0835.0,4.99,000.00,020.7,020.0,000.0,028.9,022.0,16.6,0000.0,0002.24,0000.96,0000.68
2023-12-05 15:21:00,SystemResetWarning,0834.9,5.00,000.00,020.7,020.0,000.0,028.9,022.1,16.8,0000.0,0002.13,0000.90,0000.63
2023-12-05 15:22:00,SystemResetWarning,0834.9,5.00,000.00,020.7,020.0,000.0,028.9,022.1,16.7,0000.0,0002.11,0000.87,0000.59
2023-12-05 15:23:00,SystemResetWarning,0834.9,5.00,000.00,020.7,020.1,000.0,029.0,022.1,17.4,0000.0,0002.00,0000.79,0000.54
2023-12-05 15:24:00,SystemResetWarning,0834.9,5.00,000.00,020.8,020.1,000.0,029.0,022.1,16.6,0000.0,0001.75,0000.69,0000.49
2023-12-05 15:25:00,SystemResetWarning,0834.9,5.00,000.00,020.8,020.1,000.0,029.0,022.1,17.7,0000.0,0001.66,0000.61,0000.40
2023-12-05 15:26:00,SystemResetWarning,0835.3,4.99,000.00,020.8,020.1,000.0,029.0,022.1,17.6,0000.0,0001.63,0000.59,0000.38
2023-12-05 15:27:00,SystemResetWarning,0835.3,5.00,000.00,020.8,020.1,000.0,029.0,022.2,17.1,0000.0,0001.70,0000.60,0000.36
2023-12-05 15:28:00,SystemResetWarning,0835.3,5.00,000.00,020.8,020.1,000.0,029.0,022.2,16.8,0000.0,0001.70,0000.58,0000.34
2023-12-05 15:29:00,SystemResetWarning,0835.3,5.00,000.00,020.8,020.2,000.0,029.0,022.2,17.1,0000.0,0001.60,0000.51,0000.31
2023-12-05 15:30:00,SystemResetWarning,0835.0,5.01,000.00,020.9,020.2,000.0,029.0,022.2,16.9,0000.0,0001.56,0000.48,0000.30
2023-12-05 15:31:00,SystemResetWarning,0834.7,5.00,000.00,020.9,020.2,000.0,029.0,022.2,17.4,0000.0,0001.00,0000.45,0000.29
2023-12-05 15:32:00,SystemResetWarning,0834.8,5.00,000.00,020.9,020.2,000.0,029.1,022.2,17.3,0000.0,0000.79,0000.44,0000.29
2023-12-05 15:33:00,SystemResetWarning,0834.8,5.00,000.00,020.9,020.2,000.0,029.1,022.2,17.0,0000.0,0000.82,0000.43,0000.29
2023-12-05 15:34:00,SystemResetWarning,0834.8,5.00,000.00,020.9,020.2,000.0,029.1,022.2,16.3,0000.0,0000.94,0000.44,0000.28
2023-12-05 15:35:00,SystemResetWarning,0834.8,5.00,000.00,020.9,020.2,000.0,029.1,022.2,16.4,0000.0,0001.07,0000.45,0000.27
2023-12-05 15:36:00,SystemResetWarning,0834.8,5.00,000.00,020.9,020.2,000.0,029.1,022.2,16.3,0000.0,0001.03,0000.44,0000.27
2023-12-05 15:37:00,SystemResetWarning,0834.7,5.00,000.00,020.9,020.2,000.0,029.1,022.2,17.0,0000.0,0001.08,0000.46,0000.28
2023-12-05 15:38:00,SystemResetWarning,0834.7,5.00,000.00,020.9,020.2,000.0,029.1,022.2,17.1,0000.0,0001.14,0000.48,0000.29
2023-12-05 15:39:00,SystemResetWarning,0834.7,5.00,000.00,020.9,020.2,000.0,029.1,022.2,16.9,0000.0,0001.06,0000.47,0000.30
2023-12-05 15:40:00,SystemResetWarning,0834.9,5.00,000.00,020.9,020.2,000.0,029.1,022.2,17.2,0000.0,0001.04,0000.47,0000.31
2023-12-05 15:41:00,SystemResetWarning,0834.9,5.00,000.00,020.9,020.2,000.0,029.1,022.3,17.4,0000.0,0001.02,0000.46,0000.31
2023-12-05 15:42:00,SystemResetWarning,0834.8,5.00,000.00,020.9,020.2,000.0,029.2,022.3,17.0,0000.0,0002.33,0000.47,0000.31
2023-12-05 15:43:00,SystemResetWarning,0834.8,5.00,000.00,021.0,020.3,000.0,029.2,022.3,16.4,0000.0,0003.54,0000.48,0000.32
2023-12-05 15:44:00,SystemResetWarning,0834.8,5.00,000.00,021.0,020.3,000.0,029.2,022.3,16.8,0000.0,0003.50,0000.48,0000.33
2023-12-05 15:45:00,SystemResetWarning,0834.8,5.00,000.00,021.0,020.3,000.0,029.2,022.2,16.4,0000.0,0003.35,0000.46,0000.33
2023-12-05 15:46:00,SystemResetWarning,0835.0,5.00,000.00,021.0,020.3,000.0,029.2,022.2,16.4,0000.0,0003.20,0000.45,0000.34
2023-12-05 15:47:00,SystemResetWarning,0834.9,5.00,000.00,021.0,020.3,000.0,029.2,022.2,15.9,0000.0,0003.17,0000.44,0000.34
2023-12-05 15:48:00,SystemResetWarning,0834.7,5.00,000.00,021.0,020.3,000.0,029.2,022.3,16.1,0000.0,0003.12,0000.42,0000.35
2023-12-05 15:49:00,SystemResetWarning,0834.7,5.00,000.00,021.0,020.3,000.0,029.2,022.3,16.4,0000.0,0003.05,0000.41,0000.36
2023-12-05 15:50:00,SystemResetWarning,0834.7,5.00,000.00,021.0,020.3,000.0,029.2,022.3,16.5,0000.0,0003.09,0000.40,0000.34
2023-12-05 15:51:00,SystemResetWarning,0835.1,4.99,000.00,021.0,020.3,000.0,029.2,022.3,16.3,0000.0,0003.14,0000.41,0000.33
2023-12-05 15:52:00,SystemResetWarning,0834.8,5.00,000.00,021.0,020.3,000.0,029.2,022.3,15.8,0000.0,0003.80,0000.40,0000.32
2023-12-05 15:53:00,SystemResetWarning,0834.9,5.00,000.00,021.0,020.3,000.0,029.2,022.3,15.7,0000.0,0002.90,0000.40,0000.32
2023-12-05 15:54:00,SystemResetWarning,0834.7,5.00,000.00,021.0,020.3,000.0,029.3,022.3,15.7,0000.0,0001.54,0000.41,0000.31
2023-12-05 15:55:00,SystemResetWarning,0834.7,5.00,000.00,021.0,020.3,000.0,029.3,022.3,15.6,0000.0,0001.50,0000.39,0000.30
2023-12-05 15:56:00,SystemResetWarning,0834.9,5.01,000.00,021.0,020.3,000.0,029.3,022.4,15.7,0000.0,0001.50,0000.39,0000.30
2023-12-05 15:57:00,SystemResetWarning,0835.0,4.99,000.00,021.0,020.3,000.0,029.3,022.4,15.6,0000.0,0001.48,0000.37,0000.29
2023-12-05 15:58:00,SystemResetWarning,0835.3,5.00,000.00,021.1,020.3,000.0,029.3,022.4,15.8,0000.0,0001.50,0000.37,0000.28
2023-12-05 15:59:00,SystemResetWarning,0834.9,5.00,000.00,021.1,020.4,000.0,029.3,022.4,15.8,0000.0,0001.82,0000.35,0000.26
